When you browse on this site, cookies collect data to enhance your experience and personalize the content and advertising you see.
Visit our Privacy Policy to learn more. By continuing to use the site, you agree to this use of cookies and data.
  • In France
  • List of Countries
  • For 7 days
  • Water Temperature
  • Satellite Maps
  • Weather Map
  • Weather Widgets
  • user-avatar
    Login

    Hourly Weather Burma

    Today, 16 July, Tuesday

    Time Temperature Precipitation Wind Pressure Humidity
    00:00 +17°C° 0 mm 3 mps 555 mmHg 39%
    01:00 +16°C° 0 mm 2 mps 555 mmHg 39%
    02:00 +16°C° 0 mm 2 mps 554 mmHg 40%
    03:00 +15°C° 0 mm 2 mps 554 mmHg 40%
    04:00 +15°C° 0 mm 2 mps 554 mmHg 40%
    05:00 +15°C° 0 mm 2 mps 554 mmHg 40%
    06:00 +18°C° 0 mm 1 mps 555 mmHg 36%
    07:00 +20°C° 0 mm 1 mps 557 mmHg 33%
    08:00 +20°C° 0 mm 0 mps 558 mmHg 29%
    09:00 +23°C° 0 mm 1 mps 559 mmHg 27%
    10:00 +24°C° 0 mm 2 mps 559 mmHg 25%
    11:00 +25°C° 0 mm 2 mps 560 mmHg 24%
    12:00 +26°C° 0 mm 2 mps 560 mmHg 23%
    13:00 +26°C° 0 mm 2 mps 560 mmHg 22%
    14:00 +27°C° 0 mm 3 mps 560 mmHg 21%
    15:00 +27°C° 0 mm 2 mps 560 mmHg 21%
    16:00 +27°C° 0 mm 2 mps 560 mmHg 21%
    17:00 +27°C° 0 mm 2 mps 559 mmHg 21%
    18:00 +25°C° 0 mm 2 mps 558 mmHg 27%
    19:00 +22°C° 0 mm 1 mps 557 mmHg 32%
    20:00 +18°C° 0 mm 0 mps 556 mmHg 37%
    21:00 +18°C° 0 mm 0 mps 556 mmHg 38%
    22:00 +17°C° 0 mm 0 mps 556 mmHg 39%
    23:00 +16°C° 0 mm 0 mps 556 mmHg 40%

    Tomorrow, 17 July, Wednesday

    Time Temperature Precipitation Wind Pressure Humidity
    00:00 +18°C° 0 mm 1 mps 555 mmHg 39%
    01:00 +18°C° 0 mm 1 mps 555 mmHg 39%
    02:00 +16°C° 0 mm 1 mps 555 mmHg 38%
    03:00 +16°C° 0 mm 1 mps 555 mmHg 38%
    04:00 +16°C° 0 mm 1 mps 555 mmHg 37%
    05:00 +15°C° 0 mm 1 mps 555 mmHg 37%
    06:00 +19°C° 0 mm 1 mps 556 mmHg 33%
    07:00 +21°C° 0 mm 1 mps 558 mmHg 29%
    08:00 +21°C° 0 mm 0 mps 559 mmHg 25%
    09:00 +24°C° 0 mm 1 mps 559 mmHg 23%
    10:00 +25°C° 0 mm 1 mps 560 mmHg 22%
    11:00 +26°C° 0 mm 2 mps 560 mmHg 20%
    12:00 +27°C° 0 mm 2 mps 560 mmHg 20%
    13:00 +27°C° 0 mm 2 mps 561 mmHg 19%
    14:00 +28°C° 0 mm 2 mps 561 mmHg 18%
    15:00 +28°C° 0 mm 2 mps 561 mmHg 19%
    16:00 +28°C° 0 mm 2 mps 560 mmHg 19%
    17:00 +28°C° 0 mm 2 mps 560 mmHg 20%
    18:00 +26°C° 0 mm 2 mps 559 mmHg 24%
    19:00 +23°C° 0 mm 2 mps 558 mmHg 28%
    20:00 +21°C° 0 mm 1 mps 557 mmHg 33%
    21:00 +20°C° 0 mm 2 mps 557 mmHg 34%
    22:00 +19°C° 0 mm 3 mps 557 mmHg 34%
    23:00 +19°C° 0 mm 3 mps 557 mmHg 34%

    Day after tomorrow, 18 July, Thursday

    Time Temperature Precipitation Wind Pressure Humidity
    00:00 +18°C° 0 mm 3 mps 557 mmHg 35%
    01:00 +18°C° 0 mm 3 mps 556 mmHg 35%
    02:00 +17°C° 0 mm 3 mps 556 mmHg 36%
    03:00 +17°C° 0 mm 3 mps 556 mmHg 36%
    04:00 +16°C° 0 mm 2 mps 555 mmHg 37%
    05:00 +16°C° 0 mm 2 mps 555 mmHg 37%
    06:00 +18°C° 0 mm 2 mps 556 mmHg 34%
    07:00 +21°C° 0 mm 1 mps 558 mmHg 31%
    08:00 +23°C° 0 mm 1 mps 559 mmHg 28%
    09:00 +24°C° 0 mm 1 mps 559 mmHg 25%
    10:00 +26°C° 0 mm 1 mps 560 mmHg 23%
    11:00 +27°C° 0 mm 2 mps 561 mmHg 21%
    12:00 +27°C° 0 mm 2 mps 561 mmHg 20%
    13:00 +28°C° 0 mm 2 mps 561 mmHg 19%
    14:00 +29°C° 0 mm 2 mps 561 mmHg 18%
    15:00 +29°C° 0 mm 2 mps 561 mmHg 18%
    16:00 +29°C° 0 mm 2 mps 561 mmHg 17%
    17:00 +29°C° 0 mm 2 mps 561 mmHg 17%
    18:00 +26°C° 0 mm 2 mps 559 mmHg 21%
    19:00 +24°C° 0 mm 2 mps 558 mmHg 25%
    20:00 +21°C° 0 mm 2 mps 557 mmHg 30%
    21:00 +20°C° 0 mm 2 mps 557 mmHg 30%
    22:00 +19°C° 0 mm 3 mps 557 mmHg 31%
    23:00 +19°C° 0 mm 4 mps 557 mmHg 32%

    19 July, Friday

    Time Temperature Precipitation Wind Pressure Humidity
    00:00 +18°C° 0 mm 3 mps 557 mmHg 32%
    01:00 +18°C° 0 mm 3 mps 556 mmHg 32%
    02:00 +18°C° 0 mm 3 mps 556 mmHg 32%
    03:00 +17°C° 0 mm 3 mps 556 mmHg 32%
    04:00 +17°C° 0 mm 3 mps 556 mmHg 32%
    05:00 +17°C° 0 mm 3 mps 556 mmHg 33%
    06:00 +18°C° 0 mm 2 mps 557 mmHg 30%
    07:00 +20°C° 0 mm 2 mps 558 mmHg 28%
    08:00 +23°C° 0 mm 1 mps 560 mmHg 26%
    09:00 +24°C° 0 mm 2 mps 560 mmHg 24%
    10:00 +26°C° 0 mm 2 mps 561 mmHg 22%
    11:00 +27°C° 0 mm 2 mps 561 mmHg 20%
    12:00 +27°C° 0 mm 2 mps 561 mmHg 19%
    13:00 +28°C° 0 mm 2 mps 562 mmHg 18%
    14:00 +28°C° 0 mm 2 mps 562 mmHg 17%
    15:00 +28°C° 0 mm 2 mps 561 mmHg 16%
    16:00 +28°C° 0 mm 2 mps 561 mmHg 16%
    17:00 +28°C° 0 mm 2 mps 561 mmHg 15%
    18:00 +26°C° 0 mm 2 mps 560 mmHg 19%
    19:00 +24°C° 0 mm 2 mps 559 mmHg 23%
    20:00 +21°C° 0 mm 2 mps 558 mmHg 27%
    21:00 +20°C° 0 mm 3 mps 558 mmHg 27%
    22:00 +19°C° 0 mm 4 mps 558 mmHg 27%
    23:00 +19°C° 0 mm 4 mps 558 mmHg 27%

    20 July, Saturday

    Time Temperature Precipitation Wind Pressure Humidity
    00:00 +18°C° 0 mm 4 mps 558 mmHg 27%
    01:00 +18°C° 0 mm 4 mps 557 mmHg 26%
    02:00 +18°C° 0 mm 4 mps 557 mmHg 26%
    03:00 +17°C° 0 mm 3 mps 557 mmHg 25%
    04:00 +17°C° 0 mm 3 mps 557 mmHg 25%
    05:00 +17°C° 0 mm 3 mps 557 mmHg 24%
    06:00 +19°C° 0 mm 2 mps 558 mmHg 23%
    07:00 +21°C° 0 mm 2 mps 560 mmHg 22%
    08:00 +24°C° 0 mm 2 mps 561 mmHg 20%
    09:00 +25°C° 0 mm 2 mps 561 mmHg 18%
    10:00 +26°C° 0 mm 2 mps 562 mmHg 16%
    11:00 +28°C° 0 mm 2 mps 563 mmHg 14%
    12:00 +28°C° 0 mm 2 mps 563 mmHg 14%
    13:00 +29°C° 0 mm 3 mps 563 mmHg 13%
    14:00 +30°C° 0 mm 3 mps 563 mmHg 12%
    15:00 +30°C° 0 mm 3 mps 563 mmHg 13%
    16:00 +29°C° 0 mm 3 mps 562 mmHg 13%
    17:00 +29°C° 0 mm 3 mps 562 mmHg 14%
    18:00 +27°C° 0 mm 3 mps 561 mmHg 17%
    19:00 +25°C° 0 mm 3 mps 560 mmHg 20%
    20:00 +22°C° 0 mm 4 mps 559 mmHg 23%
    21:00 +21°C° 0 mm 4 mps 559 mmHg 23%
    22:00 +20°C° 0 mm 5 mps 559 mmHg 23%
    23:00 +19°C° 0 mm 5 mps 558 mmHg 23%

    21 July, Sunday

    Time Temperature Precipitation Wind Pressure Humidity
    00:00 +17°C° 0 mm 5 mps 558 mmHg 23%
    01:00 +17°C° 0 mm 6 mps 558 mmHg 22%
    02:00 +17°C° 0 mm 6 mps 557 mmHg 22%
    03:00 +16°C° 0 mm 6 mps 557 mmHg 21%
    04:00 +16°C° 0 mm 6 mps 557 mmHg 21%
    05:00 +16°C° 0 mm 5 mps 557 mmHg 20%
    06:00 +19°C° 0 mm 5 mps 558 mmHg 20%
    07:00 +20°C° 0 mm 4 mps 559 mmHg 20%
    08:00 +22°C° 0 mm 4 mps 560 mmHg 19%
    09:00 +25°C° 0 mm 3 mps 561 mmHg 18%
    10:00 +26°C° 0 mm 3 mps 561 mmHg 16%
    11:00 +28°C° 0 mm 2 mps 562 mmHg 14%
    12:00 +29°C° 0 mm 3 mps 562 mmHg 13%
    13:00 +29°C° 0 mm 3 mps 562 mmHg 13%
    14:00 +30°C° 0 mm 3 mps 562 mmHg 12%
    15:00 +30°C° 0 mm 4 mps 562 mmHg 12%
    16:00 +29°C° 0 mm 4 mps 562 mmHg 12%
    17:00 +29°C° 0 mm 5 mps 561 mmHg 12%
    18:00 +27°C° 0 mm 5 mps 560 mmHg 15%
    19:00 +25°C° 0 mm 5 mps 559 mmHg 18%
    20:00 +22°C° 0 mm 5 mps 558 mmHg 21%
    21:00 +21°C° 0 mm 5 mps 558 mmHg 24%
    22:00 +20°C° 0 mm 5 mps 558 mmHg 28%
    23:00 +20°C° 0 mm 5 mps 558 mmHg 31%
    Show more